[Iaude] MPEC V152: 2023 VV4 [a=1.28,e=0.18,i=27.4,H=22.2]
    mpec at marsden.cfa.harvard.edu 
    mpec at marsden.cfa.harvard.edu
       
    Thu Nov  9 19:28:09 EST 2023
    
    
  
M.P.E.C. 2023-V152                            Issued 2023 November 10, 00:26 UT
     The Minor Planet Electronic Circulars contain information on unusual
         minor planets, routine data on comets and natural satellites,
         and occasional editorial announcements.  They are published
    on behalf of Division F of the International Astronomical Union by the
          Minor Planet Center, Smithsonian Astrophysical Observatory,
                          Cambridge, MA 02138, U.S.A.
			  
             Prepared using the Tamkin Foundation Computer Network
                              MPC at CFA.HARVARD.EDU
            URL https://www.minorplanetcenter.net/    ISSN 1523-6714
                                    2023 VV4                                    
Observations:
     K23V04V  C2023 10 29.51325305 55 51.082-27 36 43.43         20.44GVEV152F52
     K23V04V  C2023 10 29.52363105 55 49.174-27 35 52.14         19.89GVEV152F52
     K23V04V  C2023 10 29.52434605 55 49.096-27 35 48.68         19.63GVEV152F52
     K23V04V  C2023 10 29.54587005 55 45.106-27 34 03.09         19.87GVEV152F52
     K23V04V  C2023 10 29.54653705 55 44.981-27 33 59.53         20.74GVEV152F52
     K23V04V* C2023 11 08.53868505 18 33.085-07 45 42.98         20.06wXEV152F52
     K23V04V  C2023 11 08.55042505 18 29.415-07 43 50.57         20.15wXEV152F52
     K23V04V  C2023 11 08.56218205 18 25.719-07 41 56.70         20.25wXEV152F52
     K23V04V 1C2023 11 08.97778 05 16 25.84 -06 34 50.5          20.1 VXEV152033
     K23V04V 1C2023 11 08.97833 05 16 25.67 -06 34 44.9          20.3 VXEV152033
     K23V04V KB2023 11 09.31914 05 14 43.27 -05 38 12.7          19.6 GXEV152H36
     K23V04V KB2023 11 09.33225 05 14 39.01 -05 36 00.5          19.6 GXEV152H36
     K23V04V KB2023 11 09.34481 05 14 34.97 -05 33 54.7          19.7 GXEV152H36
     K23V04V KB2023 11 09.88271 05 11 52.47 -04 02 56.7                XEV152M45
     K23V04V KB2023 11 09.88644 05 11 51.25 -04 02 17.9          20.0 GXEV152M45
     K23V04V KB2023 11 09.89017 05 11 50.01 -04 01 39.0          19.8 GXEV152M45
     K23V04V  C2023 11 09.89747 05 11 48.15 -03 59 05.5          19.6 GVEV152M28
     K23V04V  C2023 11 09.89949 05 11 47.49 -03 58 45.8          19.8 GVEV152M28
     K23V04V  C2023 11 09.90153 05 11 46.86 -03 58 24.5          19.6 GVEV152M28
     K23V04V KC2023 11 09.95131 05 11 30.60 -03 51 05.0          19.6 VZEV152M63
     K23V04V KC2023 11 09.95785 05 11 28.42 -03 49 57.5          19.6 VZEV152M63
     K23V04V KC2023 11 09.96429 05 11 26.31 -03 48 51.2          19.7 VZEV152M63
     K23V04V KC2023 11 09.97657 05 11 22.26 -03 46 44.4          19.2 VZEV152M63
Observer details:
033 Karl Schwarzschild Observatory, Tautenburg.  Observers S. Melnikov, C.
    Hogner, F. Ludwig, M. Hartmann, B. Stecklum.  Measurer B. Stecklum.
    1.34-m f/3 Schmidt + CCD.
F52 Pan-STARRS 2, Haleakala.  Observers J. Bulger, T. Lowe, P. Minguez, A.
    Schultz, I. Smith.  Measurers K. Chambers, T. de Boer, J. Fairlamb, H.
    Gao, M. Huber, C.-C. Lin, E. Magnier, Y. Ramanjooloo, R. Wainscoat, R.
    Weryk.  1.8-m Ritchey-Chretien + CCD.
H36 Sandlot Observatory, Scranton.  Observer G. Hug.  0.56-m f/4.8 reflector +
    CMO.
M28 Lesedi Telescope-SAAO Observatory, Sutherland.  Observers N. Erasmus, S.
    Potter, C. van Gend, S. Chandra, H. Worters.  Measurers T. Ngwane, N.
    Erasmus.  1.0-m f/8 Reflector + CCD.
M45 Starhopper Observatory, Sfantu Gheorghe.  Observer F. Ursache.  0.41-m
    f/7.5 reflector + CMO.
M63 RPF Observatory, Gagliano del Capo.  Observer D. Licchelli.  0.30-m f/5.3
    reflector + CCD.
Orbital elements:
2023 VV4                                                 Earth MOID = 0.1259 AU
Epoch 2023 Sept. 13.0 TT = JDT 2460200.5                MPC                     
M 353.95036              (2000.0)            P               Q                  
n   0.67742135     Peri.  305.55860     +0.92344644     +0.01754011             
a   1.2839954      Node    56.54472     +0.22835233     +0.77769992             
e   0.1833404      Incl.   27.35159     -0.30838595     +0.62839095             
P   1.45           H   22.28          G   0.15           U   9                  
Residuals in seconds of arc
231029 F52  0.1-  0.1+    231108 033  0.5-  0.2+    231109 M28  1.4-  1.0+
231029 F52  0.2-  0.3+    231108 033  0.5-  0.3+    231109 M28  1.4-  0.0
231029 F52  0.5+  0.2+    231109 H36  0.4+  0.1-    231109 M28  0.9-  0.3+
231029 F52  0.0   0.4-    231109 H36  0.2-  0.8+    231109 M63  0.8+  0.1-
231029 F52  0.1-  0.2-    231109 H36  0.1-  0.8+    231109 M63  0.3+  0.0
231108 F52  0.1-  0.2+    231109 M45  1.0+  1.1-    231109 M63  0.5+  0.1-
231108 F52  0.1+  0.5-    231109 M45  0.8+  0.7-    231109 M63  0.6+  0.0
231108 F52  0.1+  0.0     231109 M45  0.3+  0.1-
Ephemeris:
2023 VV4                 a,e,i = 1.28, 0.18, 27                  q = 1.0486
Date    TT    R. A. (2000) Decl.     Delta      r    Elong.  Phase     V
2023 10 11    06 25 01.9 -42 40 45   0.3092  1.0574    92.4    70.7    22.3
...
2023 10 26    06 04 28.1 -31 54 33   0.2155  1.0762   106.7    62.3    21.3
...
2023 11 03    05 41 44.9 -20 20 33   0.1694  1.0898   121.3    51.1    20.5
...
2023 11 09    05 16 18.3 -06 30 29   0.1437  1.1016   137.9    37.1    19.8
2023 11 10    05 11 14.1 -03 42 08   0.1406  1.1036   141.2    34.2    19.7
2023 11 11    05 05 55.1 -00 46 08   0.1381  1.1057   144.6    31.2    19.5
...
2023 11 17    04 29 01.2 +18 17 41   0.1339  1.1189   165.2    13.0    18.9
...
2023 11 25    03 30 50.6 +39 45 48   0.1591  1.1379   159.8    17.4    19.5
...
2023 12 10    01 59 07.8 +56 09 17   0.2605  1.1768   132.5    38.1    21.2
A. U. Tomatic                (C) Copyright 2023 MPC           M.P.E.C. 2023-V152
    
    
More information about the Iaude
mailing list